User: anonymous   Login
Location: Deer Lake
(49.1830°N, 57.4330°W)
Time: 18:09:13
(UTC-02:-30)
Language:

Cosmos 1707 - Orbit

View from above orbital plane
View from above orbital plane
View from above satellite
View from above satellite

Ground track
Ground track

The orbit data is extracted from the following two-line orbital elements,

1 16326U 85113A   14297.12870410  .00007988  00000-0  50184-3 0   446
2 16326 082.5147 076.2270 0011083 049.0039 311.2146 15.09079365571229
Epoch (UTC): 24 October 2014 03:05:20
Eccentricity: 0.0011083
inclination: 82.5147°
perigee height: 531 km
apogee height: 546 km
right ascension of ascending node: 76.2270°
argument of perigee: 49.0039°
revolutions per day: 15.09079365
mean anomaly at epoch: 311.2146°
orbit number at epoch: 57122

The dashed part of the orbit path shows where the satellite is in the earth's shadow,  

DLR